Flag for Norway Weather past 2 weeks in Hammerfest, Norway

Now
32 °F

Light snow. Mostly cloudy.


Feels Like: 23 °F
Forecast: 29 / 33 °F
Wind: 12 mph from Northeast

Location: Hammerfest

Current Time: Apr 26, 2015 at 12:18:31 AM

Latest Report: Apr 25, 2015 at 10:50 PM


Visibility: N/A

Pressure: 29.92 "Hg

Humidity: 87%

Dew point: 28 °F

Location of HammerfestLocation

Historic Weather in Hammerfest — Graph

°F

Hammerfest temperature yesterday

Maximum temperature yesterday: 36 °F (at 8:50 AM)
Minimum temperature yesterday: 30 °F (at 12:50 AM)
Average temperature yesterday: 33 °F

Past Weeks' High & Low Weather Summary

 TemperatureHumidityPressure
High41 °F (Apr 12, 4:50 PM)100% (Apr 10, 11:50 PM)30.01 "Hg (Apr 10, 11:50 PM)
Low30 °F (Apr 10, 11:50 PM)44% (Apr 24, 2:50 PM)29.18 "Hg (Apr 23, 7:50 AM)
Average36 °F80%29.65 "Hg
* Reported Apr 10 10:50 PM — Apr 25 10:50 PM, Hammerfest, Weather by CustomWeather, © 2015

Note: Actual official high and low records may vary slightly from our data, if they occured in-between our weather recording intervals... More about our weather records

Advertising

Hammerfest weather history for previous 24 hours

 ConditionsComfort  
Time TempWeatherWind HumidityBarometerVisibility
10:50 PM
Sat, Apr 25
32 °FLight snow. Mostly cloudy.12 mph87%29.92 "HgN/A
9:50 PM34 °FScattered showers. Broken clouds.14 mph81%29.92 "HgN/A
8:50 PM32 °FSprinkles. Partly sunny.9 mph93%29.92 "HgN/A
7:50 PM32 °FSnow flurries. Broken clouds.12 mph93%29.92 "Hg4 mi
6:50 PM36 °FMore clouds than sun.5 mph75%29.92 "HgN/A
5:50 PM36 °FOvercast.6 mph70%29.92 "HgN/A
4:50 PM36 °FOvercast.7 mph70%29.92 "HgN/A
3:50 PM36 °FPartly sunny.8 mph65%29.92 "HgN/A
2:50 PM36 °FBroken clouds.5 mph70%29.92 "HgN/A
1:57 PM36 °FScattered showers. Broken clouds.8 mph75%29.92 "HgN/A
12:50 PM34 °FBroken clouds.6 mph81%29.92 "HgN/A
12:06 PM36 °FBroken clouds.5 mph70%29.92 "HgN/A
11:10 AM34 °FBroken clouds.3 mph70%29.92 "HgN/A
9:50 AM34 °FBroken clouds.7 mph75%29.89 "HgN/A
8:50 AM36 °FScattered clouds.6 mph65%29.89 "HgN/A
7:50 AM34 °FScattered showers. Scattered clouds.3 mph70%29.89 "HgN/A
6:50 AM32 °FLight snow. Broken clouds.2 mph75%29.86 "HgN/A
5:50 AM30 °FLight snow. Broken clouds.5 mph86%29.86 "HgN/A
4:50 AM30 °FSnow flurries. Partly sunny.3 mph86%29.86 "HgN/A
3:50 AM30 °FPassing clouds.2 mph80%29.83 "HgN/A
2:50 AM30 °FPassing clouds.3 mph80%29.83 "HgN/A
1:50 AM30 °FLight snow. Overcast.5 mph69%29.83 "HgN/A
12:50 AM30 °FPassing clouds.5 mph69%29.80 "HgN/A
Weather by CustomWeather, © 2015

See weather overviewHow to use our weather pages